CAPE
507 356 446 794 798 626 384 188 1 14 0 0 0 2 9 104 146 211 522 566 593 682 827 829 764 930 1094 1318 1317 1357 1315 1354 1416 1370 1371 1328 1365 1383 1468 1628 1712 1757 1897 1938 1886 1996 2111 2198 2409 2592 2724 2766 2763 2782 2800 2847 2796 2666 2554 2455 2504 2682 2682
784 601 482 670 793 775 452 313 200 7 30 17 13 4 13 79 144 170 364 533 542 613 739 804 732 925 1010 1199 1382 1457 1520 1323 1430 1505 1363 1337 1431 1355 1361 1423 1478 1669 1836 1859 1842 1996 2074 2257 2402 2503 2675 2765 2752 2699 2678 2772 2796 2557 2535 2590 2600 2718 2856
813 711 638 657 751 734 661 240 375 41 40 44 29 11 4 94 186 180 230 485 476 505 657 731 712 919 1034 1082 1342 1444 1620 1641 1430 1484 1463 1379 1392 1429 1366 1349 1362 1592 1792 1827 1776 1935 2094 2236 2391 2464 2569 2675 2730 2648 2524 2689 2792 2448 2409 2503 2576 2711 2792
794 754 757 749 741 694 676 449 432 390 31 37 48 188 68 159 240 215 179 444 482 463 641 690 676 856 1069 1062 1192 1374 1471 1721 1773 1613 1488 1481 1484 1483 1458 1404 1367 1466 1698 1789 1880 1861 2039 2129 2246 2420 2861 2577 2643 2615 2481 2580 2690 2551 2366 2358 2343 2497 2646
885 885 874 870 764 642 644 584 401 496 421 542 643 668 502 324 394 367 253 295 471 478 624 738 637 781 1062 1090 1083 1206 1304 1472 1713 1775 1633 1424 1368 1525 1486 1469 1417 1395 1522 1690 1886 2015 2072 2096 2090 2153 2292 2459 2544 2555 2544 2570 2509 2507 2421 2370 2268 2301 2281
1095 1040 1044 979 835 782 837 788 759 542 417 488 608 643 895 939 542 474 440 535 500 506 550 783 680 772 1035 1172 1155 1162 1221 1256 1457 1644 1651 1400 1309 1492 1533 1494 1530 1455 1448 1492 1604 1918 2070 2175 2156 2102 2087 2115 2292 2395 2533 2612 2522 2536 2560 2514 2361 2306 2364
1136 1126 1111 1112 1083 997 998 845 592 842 553 511 537 735 935 1150 1281 876 789 803 979 801 622 712 846 767 938 1220 1275 1269 1276 1254 1286 1452 1531 1424 1269 1328 1444 1500 1558 1644 1644 1637 1626 1623 1811 2042 2178 2193 2102 2034 2143 2309 2510 2594 2588 2589 2638 2692 2614 2545 2485
1144 1104 1099 1177 1208 1168 972 920 752 479 611 453 518 513 795 1048 1138 974 1034 990 1045 1034 890 936 959 897 903 1073 1302 1340 1336 1317 1276 1337 1432 1449 1381 1306 1306 1318 1340 1386 1484 1626 1762 1753 1711 1708 1759 2026 2123 2127 2101 2224 2442 2555 2548 2582 2667 2702 2776 2788 2802
1037 1031 1153 1088 1087 1028 1139 1204 1121 782 709 700 498 372 638 925 1163 1090 1120 1183 1067 1089 1125 1206 1192 1099 1074 1058 1154 1284 1320 1316 1301 1283 1367 1428 1392 1384 1348 1324 1319 1300 1278 1305 1403 1537 1614 1635 1635 1664 2057 2142 2138 2142 2290 2463 2538 2585 2655 2725 2722 2698 2681
719 1020 998 994 1067 1019 1116 1080 1156 1042 780 696 727 585 639 712 986 1191 1282 1312 1108 1166 1262 1527 1612 1503 1327 1273 1182 1158 1212 1261 1256 1262 1288 1336 1367 1325 1331 1372 1396 1386 1370 1383 1368 1359 1388 1492 1568 1588 1765 2074 2149 2140 2162 2252 2395 2477 2540 2626 2674 2621 2555
492 806 774 829 908 915 882 956 1136 1129 945 836 693 713 606 625 756 1057 1256 1317 1205 1103 1299 1432 1586 1673 1601 1540 1496 1307 1192 1187 1216 1222 1206 1203 1237 1271 1250 1244 1258 1303 1349 1374 1398 1391 1356 1300 1266 1359 1502 1808 2047 2082 2056 2090 2157 2259 2382 2481 2530 2536 2510
539 556 522 603 654 586 719 705 1133 1232 1116 1062 956 852 782 724 652 762 1061 1336 1264 1179 1160 1266 1430 1621 1738 1662 1610 1573 1400 1278 1247 1236 1206 1156 1120 1129 1154 1150 1129 1135 1148 1171 1192 1158 1064 1016 1014 1073 1278 1432 1751 1948 2001 2005 1997 2043 2155 2291 2370 2419 2462
390 371 571 574 504 534 641 742 737 978 1083 1164 1105 935 800 738 726 668 544 957 1278 1378 1273 1038 1291 1434 1642 1781 1751 1708 1613 1508 1394 1316 1283 1245 1164 1093 1068 1072 1100 1085 1069 1074 1047 1084 1025 876 784 841 1040 1229 1405 1636 1837 1935 1967 2004 2061 2101 2104 2159 2282
210 300 440 507 481 541 608 732 899 914 683 569 701 859 956 904 864 973 911 804 1017 1311 1417 1415 1110 1143 1475 1722 1871 1879 1894 1862 1748 1718 1672 1564 1349 1176 1052 1057 1079 1085 1119 1060 1042 1020 1027 996 786 715 761 1032 1248 1411 1563 1736 1862 1923 1937 1903 1875 1892 1958
0 0 146 454 475 546 655 733 750 833 866 709 704 738 796 993 1062 1006 1085 1072 1003 940 1313 1418 1354 1258 1219 1499 1754 1667 1712 1939 2061 2061 1979 1826 1894 1710 1510 1355 1081 1023 999 999 943 933 981 1016 922 684 651 694 998 1265 1402 1500 1567 1615 1648 1663 1665 1657 1696
342 325 321 322 388 487 677 760 717 669 731 762 762 762 739 787 888 930 824 915 993 928 814 791 1078 927 1077 1254 1586 1489 1574 1727 1767 1674 1630 1447 1369 1665 1944 1830 1665 1391 1023 960 928 914 941 1000 1002 848 133 295 540 850 1159 1376 1451 1487 1493 1512 1534 1554 1547
326 360 446 452 396 510 656 769 700 655 680 688 687 754 696 770 822 814 907 852 864 835 756 839 722 724 797 993 1282 1369 1299 1285 1476 1421 1363 1319 1062 1378 1219 1881 1898 1822 1578 1197 993 904 839 808 783 767 738 79 274 452 686 919 1196 1372 1452 1470 1471 1471 1485
363 432 414 348 459 426 559 696 673 594 594 561 575 624 670 692 694 652 708 862 782 646 596 718 904 654 722 701 898 936 947 1038 1036 1052 1065 1128 1129 1007 1186 1408 1536 1758 1752 1560 1254 970 780 691 638 645 626 227 35 186 350 479 695 895 1154 1319 1383 1424 1439
296 328 334 266 400 286 468 512 562 549 539 491 500 514 548 521 514 565 88 71 976 956 775 776 894 806 778 810 844 897 952 818 908 859 998 1128 1073 976 921 785 773 1026 1282 1372 1390 1198 1001 811 705 596 535 444 0 2 125 348 366 568 726 923 1148 1298 1368
243 127 221 232 147 280 387 327 369 405 389 429 497 510 508 462 433 452 390 431 402 556 800 796 987 903 899 896 877 892 934 897 955 1009 1018 980 929 776 694 776 1006 930 1101 1041 1031 1020 1045 1042 964 825 684 524 263 0 2 24 178 4 0 676 782 950 1105
81 105 11 107 78 52 140 162 234 312 412 454 460 490 488 426 423 345 340 373 412 374 319 470 539 816 968 973 943 845 844 817 865 950 1098 1370 1599 1699 1547 1326 1163 1514 1569 1526 1475 1365 1250 1062 1038 980 930 873 745 867 923 601 118 0 0 0 506 679 746
93 97 68 94 134 143 145 147 234 339 339 318 297 296 281 277 287 281 298 323 312 290 282 317 432 690 678 683 792 892 915 922 984 932 981 1017 1107 1255 1222 1304 1418 1286 1407 1553 1602 1605 1575 1348 1150 1094 925 688 655 610 812 875 918 608 0 0 0 16 529
211 162 149 174 180 224 158 150 158 214 269 247 235 205 179 189 159 172 218 230 236 228 268 324 361 315 350 604 666 578 664 785 934 1046 1072 1080 1036 1061 1118 1191 1089 1104 1272 1378 1484 1567 1591 1660 1641 1543 1366 1166 1032 916 806 845 821 838 868 701 535 461 119
156 184 204 207 152 230 243 249 293 268 248 224 199 185 181 198 164 175 179 205 207 204 222 227 263 386 433 497 506 514 520 626 642 655 695 710 837 961 995 1002 954 1000 1012 1041 1206 1289 1393 1419 1442 1392 1439 1456 1372 1253 1124 1040 938 839 771 782 880 797 599
134 119 98 112 85 108 88 0 66 156 83 66 78 131 81 92 77 0 0 0 0 0 0 92 196 256 307 384 422 438 435 431 426 436 451 479 567 636 856 886 920 953 964 1003 970 1029 1026 1188 1260 1354 1391 1457 1454 1341 1299 1299 1268 1178 1081 978 855 811 865
50 93 57 0 2 3 64 0 0 0 0 0 0 0 0 0 0 0 0 0 0 0 0 0 0 1 82 185 240 264 286 269 321 388 349 344 357 437 556 703 790 825 817 802 825 866 972 1021 1111 1262 1316 1445 1568 1466 1337 1348 1378 1330 1338 1323 1226 1114 956
0 0 0 0 0 0 0 0 0 0 0 0 0 0 0 0 0 0 0 0 0 0 0 0 0 0 0 0 0 0 74 116 124 78 204 254 262 263 290 357 420 459 593 771 815 773 819 884 910 949 1055 1146 1186 1294 1362 1443 1414 1387 1403 1390 1382 1370 1313
0 0 0 0 0 0 0 0 0 0 0 0 0 0 0 0 0 0 0 0 0 0 0 0 0 0 0 0 0 0 0 0 0 0 0 118 165 204 270 301 290 258 312 493 651 724 765 800 820 865 853 836 930 1035 1132 1244 1275 1444 1529 1459 1451 1442 1409
0 0 0 0 0 0 0 0 0 0 0 0 0 0 0 0 0 0 0 0 0 0 0 0 0 0 0 0 0 0 0 0 0 0 0 0 0 0 0 75 133 202 217 230 328 477 601 652 662 720 732 872 767 712 842 945 998 1190 1290 1376 1413 1390 1397
1 0 0 0 0 0 0 0 0 0 0 0 0 0 0 0 0 0 0 0 0 0 0 0 0 0 0 0 0 0 0 0 0 0 0 0 0 0 0 0 0 1 47 112 180 264 374 440 564 631 614 587 601 622 641 702 819 962 1044 1070 1156 1226 1291
0 0 0 0 0 0 0 0 0 0 0 0 0 0 0 0 0 0 0 0 0 0 0 0 0 0 0 0 0 0 0 0 0 0 0 0 0 0 0 0 0 0 0 0 2 4 99 168 411 528 685 452 540 598 601 621 679 745 788 892 1007 1088 1162
0 0 0 0 0 0 0 0 0 0 0 0 0 0 0 0 0 0 0 0 0 0 0 0 0 0 0 0 0 0 0 0 0 0 0 0 0 0 0 0 0 0 0 0 0 0 0 17 217 374 275 200 358 432 538 521 495 553 573 554 481 688 818
0 0 0 0 0 0 0 0 0 0 0 0 0 0 0 0 0 0 0 0 0 0 0 0 0 0 0 0 0 0 0 0 0 0 0 0 0 0 0 0 0 0 0 0 0 0 0 0 0 0 0 5 122 226 312 346 373 387 389 404 343 352 494
0 0 0 0 0 0 0 0 0 0 0 0 0 0 0 0 0 0 0 0 0 0 0 0 0 0 0 0 0 0 0 0 0 0 0 0 0 0 0 0 0 0 0 0 0 0 0 0 0 0 0 0 0 0 116 237 276 253 222 231 311 371 215
0 0 0 0 0 0 0 0 0 0 0 0 0 0 0 0 0 0 0 0 0 0 0 0 0 0 0 0 0 0 0 0 0 0 0 0 0 0 0 0 0 0 0 0 0 0 0 0 0 0 0 0 0 0 0 0 30 76 0 56 58 0 12
0 0 0 0 0 0 0 0 0 0 0 0 0 0 0 0 0 0 0 0 0 0 0 0 0 0 0 0 0 0 1 2 0 0 0 0 0 0 0 0 0 0 0 0 0 0 0 0 0 0 0 0 0 0 0 0 0 0 0 0 0 0 0
0 0 0 0 0 0 0 0 0 0 0 0 0 0 0 0 0 0 0 0 0 0 0 0 0 0 0 0 0 1 8 1 0 0 0 0 0 0 0 0 0 0 0 0 0 0 0 0 0 0 0 0 0 0 0 0 0 0 0 0 0 0 0
0 0 0 0 0 0 0 0 0 0 0 0 0 0 0 0 0 0 0 0 0 0 0 0 0 0 0 1 4 9 6 0 0 0 0 0 0 0 0 0 0 0 0 0 0 0 0 0 0 0 0 0 0 0 0 0 0 0 0 0 0 0 0
Wind_Speed
7 11 17 22 21 18 17 14 nan nan nan nan nan nan nan 8 7 8 7 7 7 8 8 9 9 11 11 11 11 12 11 11 12 11 11 11 11 10 10 11 10 9 8 7 8 8 9 10 9 9 9 9 7 7 6 6 6 6 5 5 5 5 4
8 12 16 22 22 20 19 18 17 nan nan nan nan nan nan nan 9 9 7 7 7 8 8 9 9 10 11 12 13 12 12 11 12 13 12 12 13 12 11 10 10 9 9 8 8 8 9 9 9 10 10 9 8 8 7 6 6 5 5 5 4 5 4
6 11 16 18 21 21 19 22 23 nan nan nan nan nan nan nan 10 10 10 9 7 7 8 8 9 10 11 12 13 12 13 13 13 12 12 11 11 11 11 11 10 10 9 9 9 8 9 8 10 10 10 9 9 8 7 6 6 5 5 5 4 4 4
7 10 12 15 20 23 23 26 30 29 nan nan nan 15 nan 12 11 10 11 11 10 9 8 7 9 10 10 10 11 13 13 14 13 13 13 13 11 12 12 12 12 13 12 9 8 8 8 8 8 10 10 10 9 9 8 6 5 5 4 5 4 4 4
15 15 17 21 28 35 39 39 30 24 22 20 18 17 16 16 15 13 13 11 11 11 9 8 8 9 10 10 11 13 13 14 14 14 14 13 13 14 12 12 12 12 10 10 10 9 9 8 8 8 9 9 9 9 8 7 6 5 5 4 4 4 4
26 26 27 30 33 33 30 26 21 24 24 20 20 21 23 22 19 16 16 16 13 12 12 11 8 9 10 10 11 13 16 16 16 15 14 13 13 13 12 12 12 11 12 10 10 9 9 8 7 7 7 8 8 8 8 7 7 6 6 5 5 4 4
30 31 28 26 24 22 20 21 31 34 27 21 22 26 28 29 23 20 22 19 17 16 14 12 11 10 10 12 12 13 14 15 17 16 16 14 13 12 12 12 12 12 11 13 11 11 10 9 8 7 6 7 7 7 6 7 7 7 7 6 6 6 5
35 34 32 30 28 27 29 33 36 31 22 22 30 32 31 28 26 24 23 22 22 21 18 15 14 13 13 14 13 13 14 15 18 18 18 16 14 12 12 12 12 12 14 13 11 12 11 10 10 9 8 7 7 7 7 6 6 7 7 6 6 6 6
38 38 33 34 34 31 28 24 21 19 23 29 32 29 23 21 22 24 25 26 25 23 20 18 17 16 15 14 14 14 15 16 17 18 17 16 16 13 12 12 12 13 13 12 12 12 11 11 11 11 10 9 8 8 8 7 7 8 8 7 6 5 6
37 37 36 32 29 29 28 24 22 26 28 26 24 19 15 18 24 25 26 26 25 23 23 22 21 20 18 17 15 15 16 15 15 15 15 16 17 15 14 13 13 14 13 13 13 12 11 11 12 13 11 10 10 10 10 9 9 9 8 7 7 6 6
34 33 35 36 34 31 28 21 19 24 26 23 17 14 15 19 21 23 26 26 24 24 26 27 27 25 23 21 18 17 15 13 13 13 14 15 18 17 16 15 14 14 13 13 12 12 12 11 13 13 13 11 10 10 10 10 10 9 9 10 9 8 8
31 29 33 36 37 37 34 25 22 27 29 25 17 15 14 15 17 20 24 24 24 23 27 31 29 26 26 24 22 19 16 14 14 14 14 15 17 18 18 16 15 15 15 14 13 12 12 11 12 12 13 12 11 11 10 10 10 9 9 9 10 11 11
35 33 34 35 35 36 35 28 18 19 22 20 17 15 17 22 26 26 24 22 21 24 29 29 29 32 30 28 25 24 21 19 17 18 17 17 18 21 22 20 17 16 16 17 15 14 13 13 13 13 13 13 13 12 12 11 11 10 10 10 11 11 11
41 40 37 34 36 36 34 31 25 21 22 22 18 20 24 28 29 26 20 15 15 19 24 29 35 37 34 31 32 32 30 28 28 27 24 21 21 22 24 24 21 19 18 19 17 15 15 14 14 14 15 14 14 13 13 12 12 12 12 12 11 11 11
nan nan 39 36 36 35 33 31 30 30 29 27 27 27 28 28 25 15 11 11 15 19 20 24 31 36 36 32 33 39 41 38 36 36 35 29 23 22 23 26 26 24 21 19 18 17 16 16 15 16 16 16 16 15 15 14 13 14 14 13 12 13 12
37 39 39 36 36 35 34 33 32 31 30 30 29 28 28 26 24 21 18 19 20 20 21 23 25 29 33 30 34 37 35 32 31 30 29 29 27 23 22 24 27 26 25 23 23 22 20 18 17 16 15 16 17 18 18 17 16 13 10 12 14 14 13
35 36 36 34 34 36 35 35 34 33 33 32 31 29 27 25 25 26 27 25 24 24 23 18 21 25 28 26 28 30 30 30 32 31 26 25 26 26 25 23 24 27 27 26 25 24 24 22 19 17 17 nan 18 19 19 19 18 12 11 10 10 14 16
33 34 34 32 33 35 34 33 35 35 35 35 34 32 29 28 26 25 24 24 24 23 23 23 21 20 20 23 27 30 32 34 34 30 25 24 23 23 24 26 25 25 26 27 26 25 25 24 22 21 20 19 nan 19 19 20 17 14 13 11 9 11 14
34 35 34 33 34 34 32 32 33 34 34 34 34 34 32 30 29 28 nan nan 24 21 22 22 21 21 23 25 28 31 31 29 30 29 27 25 24 24 25 22 22 26 30 30 31 30 27 24 24 22 22 22 nan nan 20 20 17 15 15 13 11 10 12
35 35 35 35 34 34 32 33 33 33 34 34 34 35 32 31 31 31 32 33 30 29 26 23 20 21 21 21 24 28 29 31 28 24 23 21 22 24 26 26 26 29 31 32 34 32 30 29 26 24 23 23 23 nan nan nan 19 nan nan 14 14 13 16
nan 34 nan 34 nan nan 33 33 35 36 36 35 35 34 35 34 32 31 33 33 33 33 33 28 24 24 22 20 22 24 24 25 27 29 31 31 30 29 30 30 31 35 36 35 33 32 32 31 29 27 26 25 26 27 26 25 24 nan nan nan 14 14 19
nan nan nan nan 35 35 35 36 37 37 35 35 36 36 35 35 34 35 35 34 32 31 32 31 29 27 23 22 21 22 21 20 21 23 26 30 33 36 37 38 37 38 38 36 34 33 32 31 31 30 29 28 27 27 26 28 27 26 nan nan nan nan 23
42 38 37 38 39 38 36 37 38 38 38 39 39 37 36 35 37 36 36 36 33 33 33 34 34 32 27 22 21 22 21 20 19 20 21 23 27 31 34 36 34 33 32 33 32 29 28 27 27 29 29 28 27 27 26 27 27 28 30 27 23 26 25
39 35 35 37 38 39 40 40 41 42 42 42 42 38 36 36 38 38 38 37 36 36 36 36 35 33 31 29 28 28 28 26 24 24 21 18 19 21 23 26 29 32 31 30 30 30 30 28 26 26 28 29 28 28 28 27 27 28 31 32 31 29 28
40 36 nan 37 nan 40 nan nan nan 41 nan nan nan 38 nan nan nan nan nan nan nan nan nan nan 35 34 34 33 32 32 32 32 31 29 25 20 18 17 16 16 23 27 29 29 28 26 26 27 26 26 28 30 29 28 28 29 31 31 30 31 32 33 32
nan nan nan nan nan nan nan nan nan nan nan nan nan nan nan nan nan nan nan nan nan nan nan nan nan nan nan 35 34 33 34 33 33 32 30 26 24 22 17 16 18 21 23 25 27 25 23 22 24 25 26 27 29 29 30 31 33 34 30 28 28 29 33
nan nan nan nan nan nan nan nan nan nan nan nan nan nan nan nan nan nan nan nan nan nan nan nan nan nan nan nan nan nan nan 34 33 nan 32 30 27 26 26 24 22 21 21 21 22 22 22 22 22 21 19 21 24 27 29 31 32 33 31 28 26 26 29
nan nan nan nan nan nan nan nan nan nan nan nan nan nan nan nan nan nan nan nan nan nan nan nan nan nan nan nan nan nan nan nan nan nan nan 32 31 30 29 28 27 26 26 25 24 23 22 23 22 21 19 19 21 23 24 24 26 29 30 28 30 31 31
nan nan nan nan nan nan nan nan nan nan nan nan nan nan nan nan nan nan nan nan nan nan nan nan nan nan nan nan nan nan nan nan nan nan nan nan nan nan nan nan 31 30 30 30 29 27 26 25 24 23 21 21 21 22 21 20 24 30 31 30 26 25 28
nan nan nan nan nan nan nan nan nan nan nan nan nan nan nan nan nan nan nan nan nan nan nan nan nan nan nan nan nan nan nan nan nan nan nan nan nan nan nan nan nan nan nan 33 32 30 28 26 26 25 23 24 24 25 24 24 25 26 27 24 21 22 24
nan nan nan nan nan nan nan nan nan nan nan nan nan nan nan nan nan nan nan nan nan nan nan nan nan nan nan nan nan nan nan nan nan nan nan nan nan nan nan nan nan nan nan nan nan nan nan 29 28 28 28 28 29 28 28 28 29 29 30 29 25 24 23
nan nan nan nan nan nan nan nan nan nan nan nan nan nan nan nan nan nan nan nan nan nan nan nan nan nan nan nan nan nan nan nan nan nan nan nan nan nan nan nan nan nan nan nan nan nan nan nan 35 34 32 31 31 31 31 32 34 35 36 36 30 30 28
nan nan nan nan nan nan nan nan nan nan nan nan nan nan nan nan nan nan nan nan nan nan nan nan nan nan nan nan nan nan nan nan nan nan nan nan nan nan nan nan nan nan nan nan nan nan nan nan nan nan nan nan 34 33 34 34 35 38 39 38 37 33 35
nan nan nan nan nan nan nan nan nan nan nan nan nan nan nan nan nan nan nan nan nan nan nan nan nan nan nan nan nan nan nan nan nan nan nan nan nan nan nan nan nan nan nan nan nan nan nan nan nan nan nan nan nan nan 36 36 37 40 42 42 39 36 36
nan nan nan nan nan nan nan nan nan nan nan nan nan nan nan nan nan nan nan nan nan nan nan nan nan nan nan nan nan nan nan nan nan nan nan nan nan nan nan nan nan nan nan nan nan nan nan nan nan nan nan nan nan nan nan nan nan nan nan nan nan nan nan
nan nan nan nan nan nan nan nan nan nan nan nan nan nan nan nan nan nan nan nan nan nan nan nan nan nan nan nan nan nan nan nan nan nan nan nan nan nan nan nan nan nan nan nan nan nan nan nan nan nan nan nan nan nan nan nan nan nan nan nan nan nan nan
nan nan nan nan nan nan nan nan nan nan nan nan nan nan nan nan nan nan nan nan nan nan nan nan nan nan nan nan nan nan nan nan nan nan nan nan nan nan nan nan nan nan nan nan nan nan nan nan nan nan nan nan nan nan nan nan nan nan nan nan nan nan nan
nan nan nan nan nan nan nan nan nan nan nan nan nan nan nan nan nan nan nan nan nan nan nan nan nan nan nan nan nan nan nan nan nan nan nan nan nan nan nan nan nan nan nan nan nan nan nan nan nan nan nan nan nan nan nan nan nan nan nan nan nan nan nan
Wind_Direction
230 209 207 212 212 215 224 220 nan nan nan nan nan nan nan 237 244 253 259 266 267 253 242 244 243 234 237 230 225 220 217 215 209 203 199 194 193 193 188 187 190 190 194 186 171 165 161 169 167 160 162 158 155 155 156 157 157 163 166 160 166 161 146
239 206 198 209 211 213 219 224 217 nan nan nan nan nan nan nan 249 253 257 266 274 272 257 248 244 236 236 230 228 226 226 225 219 206 200 198 197 196 194 196 196 195 197 191 189 180 182 174 172 168 163 161 156 157 160 160 156 161 169 171 172 163 166
227 196 191 199 208 211 219 222 220 nan nan nan nan nan nan nan 261 268 265 266 267 265 260 259 251 246 237 232 230 229 229 230 227 220 211 205 201 200 199 202 202 206 203 201 199 194 192 186 178 173 167 161 160 160 161 166 161 163 170 180 178 171 165
197 190 192 197 206 213 215 220 222 218 nan nan nan 250 nan 262 263 269 277 286 289 275 277 267 260 254 247 243 236 233 232 231 233 229 221 214 211 209 211 206 206 210 215 208 205 204 202 201 190 181 173 168 165 165 169 166 169 170 177 186 174 169 162
204 200 204 209 211 215 214 218 221 226 236 239 244 243 249 265 270 261 256 262 279 292 298 298 278 265 250 244 232 232 235 237 235 233 230 222 219 220 219 218 218 218 218 216 214 212 207 213 203 196 184 179 172 175 171 175 178 183 190 192 174 174 157
216 212 214 224 232 230 231 229 224 228 233 236 235 234 231 239 249 251 248 253 253 248 245 245 252 255 257 249 237 230 228 229 232 235 239 234 233 230 227 224 227 224 224 224 225 220 217 217 217 212 203 194 188 184 179 182 185 195 198 199 183 181 166
224 223 223 230 236 241 240 234 225 222 219 219 228 229 229 227 239 252 250 249 253 259 255 249 242 237 233 238 239 235 232 230 228 230 233 236 238 243 240 234 231 231 229 228 227 229 225 221 219 223 219 213 209 202 195 192 194 198 204 206 194 185 180
221 225 225 227 228 230 226 229 230 224 220 222 225 226 228 228 234 246 255 254 251 251 252 256 251 242 233 227 231 238 235 231 226 223 224 228 232 239 244 243 239 235 231 232 227 232 231 228 223 223 225 225 218 213 208 209 207 207 211 211 206 193 193
224 226 224 223 223 227 232 235 244 246 234 232 237 239 235 238 245 250 252 245 240 249 257 259 258 253 246 237 233 234 235 235 231 227 223 222 225 230 237 241 241 238 238 233 230 231 233 234 236 233 231 225 224 221 214 213 213 214 216 215 218 214 204
215 222 229 232 229 226 231 234 231 233 234 233 238 247 247 244 244 245 246 247 245 246 251 253 252 250 247 242 239 239 238 238 238 238 229 222 220 224 227 233 237 239 237 233 230 233 232 235 240 242 243 237 230 227 219 214 210 212 215 221 228 227 224
226 215 219 227 231 232 232 228 234 244 248 243 233 231 234 238 240 242 245 248 250 251 250 244 240 244 245 244 245 245 244 241 241 241 235 226 221 219 222 224 229 233 235 234 229 227 231 232 237 244 247 248 244 239 231 223 219 213 210 213 221 229 232
223 223 219 221 225 231 234 226 220 223 236 244 238 219 225 236 240 241 243 245 246 246 244 242 242 247 247 243 246 245 242 236 233 232 232 228 221 217 218 220 221 224 226 228 226 222 224 231 236 242 247 247 247 249 246 241 237 230 221 219 219 221 224
223 223 222 224 226 228 233 237 227 222 223 238 242 241 235 232 228 227 228 230 230 231 235 243 242 241 240 237 238 239 236 233 229 223 222 223 221 217 217 217 218 222 222 223 219 218 216 219 225 229 237 241 244 246 249 251 250 246 239 233 231 230 229
228 224 223 225 228 229 232 239 244 233 220 222 225 223 223 230 230 227 224 222 229 236 239 236 237 236 232 227 228 231 226 220 219 217 214 216 218 219 218 217 218 220 222 225 221 217 216 218 222 224 228 232 237 239 243 246 248 249 247 245 245 244 240
nan nan 224 224 229 231 231 235 238 238 233 229 228 230 231 234 242 247 253 243 236 231 232 237 237 236 231 222 230 231 225 222 219 213 207 206 214 219 216 217 217 218 221 225 226 223 220 221 226 230 231 230 233 232 234 239 243 246 249 249 248 248 247
233 228 226 226 229 229 233 233 234 236 238 237 237 235 239 241 237 230 231 233 232 234 239 250 248 244 238 222 226 236 235 236 237 233 220 207 199 202 213 217 216 219 219 220 223 223 224 224 227 233 239 239 237 234 231 229 231 239 263 262 253 251 248
231 229 227 227 232 233 230 232 233 233 234 235 234 234 233 234 236 237 239 237 232 228 223 239 260 257 249 234 229 235 239 238 239 238 236 229 216 199 197 207 216 218 219 218 221 225 224 223 222 227 234 nan 245 245 240 233 229 234 246 259 269 256 252
233 231 230 230 231 234 232 230 234 235 235 234 234 233 232 231 232 235 236 236 233 225 226 233 248 255 248 236 236 236 232 229 229 228 226 232 231 223 212 198 203 216 221 221 220 222 226 226 224 222 225 233 nan 246 248 244 242 244 244 250 260 263 256
233 230 227 229 232 235 233 231 232 235 236 234 233 235 233 230 230 231 nan nan 230 231 233 233 239 240 236 234 234 231 228 224 226 223 221 220 223 225 228 223 207 211 218 218 220 220 222 224 227 227 227 228 nan nan 243 243 249 258 259 256 256 261 259
228 227 226 226 229 232 232 231 231 232 234 235 235 235 235 233 231 230 233 239 239 237 237 240 242 240 237 236 233 228 227 226 227 234 230 226 223 224 228 229 223 220 221 220 220 220 219 220 223 227 230 233 236 nan nan nan 239 nan nan 266 265 262 258
nan 227 nan 232 nan nan 234 235 235 233 231 232 233 233 235 236 232 230 234 239 241 239 243 246 247 244 237 233 232 230 226 230 229 228 229 229 230 234 233 230 227 225 223 221 220 220 219 219 220 223 227 231 237 240 241 243 237 nan nan nan 261 260 256
nan nan nan nan 239 237 236 236 237 237 235 234 234 233 233 237 237 235 233 236 237 236 238 240 236 237 242 238 231 230 229 224 226 228 228 228 229 230 230 226 225 228 224 223 222 221 222 220 222 222 225 229 235 239 239 242 240 244 nan nan nan nan 251
248 247 244 240 240 240 239 238 237 238 239 237 235 234 232 235 239 240 238 237 236 234 232 233 229 229 235 239 237 240 239 231 231 234 233 231 230 232 233 231 227 234 236 229 231 230 230 231 231 229 227 228 233 238 239 242 247 253 252 250 251 254 250
245 242 241 242 239 238 236 236 235 234 236 237 235 234 235 236 239 241 240 239 238 236 235 237 235 234 238 241 241 242 239 237 238 237 234 236 238 234 235 235 231 230 230 230 225 222 221 223 229 236 240 237 231 231 235 239 249 260 261 261 263 261 255
243 240 nan 238 nan 239 nan nan nan 235 nan nan nan 232 nan nan nan nan nan nan nan nan nan nan 241 241 242 244 246 244 242 239 239 239 239 241 241 245 247 241 230 224 223 225 224 223 219 218 222 227 233 236 234 229 230 233 239 250 255 261 269 265 257
nan nan nan nan nan nan nan nan nan nan nan nan nan nan nan nan nan nan nan nan nan nan nan nan nan nan nan 247 248 248 246 245 244 243 242 242 242 244 250 252 242 233 228 228 228 222 220 219 216 214 220 227 231 232 234 234 237 246 253 254 260 267 262
nan nan nan nan nan nan nan nan nan nan nan nan nan nan nan nan nan nan nan nan nan nan nan nan nan nan nan nan nan nan nan 247 246 nan 241 242 243 245 249 253 249 247 242 236 236 232 225 222 219 215 216 220 224 228 231 236 240 243 247 248 253 258 262
nan nan nan nan nan nan nan nan nan nan nan nan nan nan nan nan nan nan nan nan nan nan nan nan nan nan nan nan nan nan nan nan nan nan nan 244 243 240 241 249 257 254 249 248 247 244 240 236 230 227 223 225 230 231 233 228 226 244 247 247 243 245 250
nan nan nan nan nan nan nan nan nan nan nan nan nan nan nan nan nan nan nan nan nan nan nan nan nan nan nan nan nan nan nan nan nan nan nan nan nan nan nan nan 240 244 248 250 250 250 247 243 239 236 237 239 247 251 246 244 244 247 249 250 255 257 261
nan nan nan nan nan nan nan nan nan nan nan nan nan nan nan nan nan nan nan nan nan nan nan nan nan nan nan nan nan nan nan nan nan nan nan nan nan nan nan nan nan nan nan 244 250 253 252 251 251 253 254 254 251 252 254 255 257 261 265 265 268 264 264
nan nan nan nan nan nan nan nan nan nan nan nan nan nan nan nan nan nan nan nan nan nan nan nan nan nan nan nan nan nan nan nan nan nan nan nan nan nan nan nan nan nan nan nan nan nan nan 248 251 254 256 253 249 251 255 257 259 259 261 253 244 246 252
nan nan nan nan nan nan nan nan nan nan nan nan nan nan nan nan nan nan nan nan nan nan nan nan nan nan nan nan nan nan nan nan nan nan nan nan nan nan nan nan nan nan nan nan nan nan nan nan 247 248 250 251 252 251 251 255 260 259 257 256 253 255 252
nan nan nan nan nan nan nan nan nan nan nan nan nan nan nan nan nan nan nan nan nan nan nan nan nan nan nan nan nan nan nan nan nan nan nan nan nan nan nan nan nan nan nan nan nan nan nan nan nan nan nan nan 251 251 251 252 253 255 257 257 257 258 260
nan nan nan nan nan nan nan nan nan nan nan nan nan nan nan nan nan nan nan nan nan nan nan nan nan nan nan nan nan nan nan nan nan nan nan nan nan nan nan nan nan nan nan nan nan nan nan nan nan nan nan nan nan nan 252 251 252 253 254 253 253 255 255
nan nan nan nan nan nan nan nan nan nan nan nan nan nan nan nan nan nan nan nan nan nan nan nan nan nan nan nan nan nan nan nan nan nan nan nan nan nan nan nan nan nan nan nan nan nan nan nan nan nan nan nan nan nan nan nan nan nan nan nan nan nan nan
nan nan nan nan nan nan nan nan nan nan nan nan nan nan nan nan nan nan nan nan nan nan nan nan nan nan nan nan nan nan nan nan nan nan nan nan nan nan nan nan nan nan nan nan nan nan nan nan nan nan nan nan nan nan nan nan nan nan nan nan nan nan nan
nan nan nan nan nan nan nan nan nan nan nan nan nan nan nan nan nan nan nan nan nan nan nan nan nan nan nan nan nan nan nan nan nan nan nan nan nan nan nan nan nan nan nan nan nan nan nan nan nan nan nan nan nan nan nan nan nan nan nan nan nan nan nan
nan nan nan nan nan nan nan nan nan nan nan nan nan nan nan nan nan nan nan nan nan nan nan nan nan nan nan nan nan nan nan nan nan nan nan nan nan nan nan nan nan nan nan nan nan nan nan nan nan nan nan nan nan nan nan nan nan nan nan nan nan nan nan